Simultaneous Nadir Overpasses (SNOs) Predictions

Prediction of SNOs between FY3D and NOAA-20 Satellite Orbit:

Table of predicted SNOs for the next 14.0 days since TLE Epoch: 3/2/2024
Index Date (FY3D) Time (FY3D) Lat,Lon (FY3D) SZA (FY3D ) Date (NOAA-20) Time (NOAA-20) Lat,Lon (NOAA-20) SZA (NOAA-20 ) Distance(km) Time Diff (sec)
1 03/02/2024 04:05:53 81.14, 61.20 92.57 03/02/2024 04:05:06 81.14, 61.30 92.59 1.74 47
2 03/02/2024 04:56:38 -81.14,-131.22 87.48 03/02/2024 04:55:50 -81.13,-131.09 87.47 2.23 48
3 03/02/2024 05:47:24 81.13, 35.82 92.55 03/02/2024 05:46:36 81.14, 35.88 92.57 1.22 48
4 03/02/2024 06:38:09 -81.14,-156.60 87.51 03/02/2024 06:37:20 -81.13,-156.51 87.49 1.61 49
5 03/02/2024 07:28:55 81.13, 10.44 92.52 03/02/2024 07:28:06 81.14, 10.46 92.55 0.89 49
6 03/02/2024 08:19:40 -81.14, 178.02 87.53 03/02/2024 08:18:50 -81.13, 178.07 87.52 1.01 50
7 03/02/2024 09:10:25 81.14, -14.56 92.44 03/02/2024 09:09:35 81.13, -14.58 92.47 0.74 50
8 03/02/2024 10:01:11 -81.14, 152.64 87.56 03/02/2024 10:00:20 -81.13, 152.65 87.54 0.43 51
9 03/02/2024 10:51:56 81.14, -39.94 92.42 03/02/2024 10:51:05 81.13, -39.99 92.45 1.06 51
10 03/02/2024 11:42:42 -81.14, 127.25 87.59 03/02/2024 11:41:50 -81.14, 127.24 87.56 0.34 52
11 03/02/2024 12:33:27 81.14, -65.32 92.39 03/02/2024 12:32:35 81.13, -65.41 92.43 1.58 52
12 03/02/2024 13:24:13 -81.14, 101.87 87.61 03/02/2024 13:23:20 -81.14, 101.82 87.58 0.89 53
13 03/02/2024 14:14:58 81.14, -90.71 92.36 03/02/2024 14:14:05 81.14, -90.83 92.41 2.16 53
14 03/02/2024 15:05:44 -81.14, 76.49 87.64 03/02/2024 15:04:50 -81.14, 76.40 87.60 1.50 54
15 03/02/2024 15:56:29 81.14,-116.09 92.34 03/02/2024 15:55:35 81.14,-116.25 92.39 2.77 54
16 03/02/2024 16:47:15 -81.14, 51.11 87.67 03/02/2024 16:46:20 -81.14, 50.98 87.62 2.11 55
17 03/02/2024 17:38:01 81.13,-141.86 92.36 03/02/2024 17:37:05 81.14,-141.67 92.37 3.25 56
18 03/02/2024 18:28:46 -81.14, 25.72 87.69 03/02/2024 18:27:50 -81.14, 25.57 87.64 2.72 56
19 03/02/2024 19:19:32 81.13,-167.24 92.33 03/02/2024 19:18:35 81.14,-167.09 92.35 2.66 57
20 03/02/2024 20:10:17 -81.14, 0.34 87.72 03/02/2024 20:09:19 -81.13, 0.53 87.72 3.26 58
21 03/02/2024 21:01:02 81.14, 167.76 92.26 03/02/2024 21:00:04 81.13, 167.87 92.27 2.07 58
22 03/02/2024 21:51:48 -81.14, -25.04 87.75 03/02/2024 21:50:49 -81.13, -24.89 87.74 2.64 59
23 03/02/2024 22:42:33 81.14, 142.38 92.23 03/02/2024 22:41:34 81.13, 142.45 92.25 1.45 59
24 03/02/2024 23:33:18 -81.14, -50.43 87.78 03/02/2024 23:32:18 -81.13, -50.31 87.76 2.03 60
25 03/03/2024 00:24:03 81.14, 117.00 92.20 03/03/2024 00:23:03 81.13, 117.04 92.23 0.86 60
26 03/03/2024 01:14:49 -81.14, -75.81 87.80 03/03/2024 01:13:48 -81.13, -75.73 87.78 1.41 61
27 03/03/2024 02:05:34 81.14, 91.62 92.18 03/03/2024 02:04:33 81.13, 91.62 92.21 0.43 61
28 03/03/2024 02:56:20 -81.14,-101.19 87.83 03/03/2024 02:55:18 -81.14,-101.14 87.80 0.80 62
29 03/03/2024 03:47:05 81.14, 66.23 92.15 03/03/2024 03:46:03 81.14, 66.20 92.19 0.66 62
30 03/03/2024 04:37:51 -81.14,-126.57 87.86 03/03/2024 04:36:48 -81.14,-126.56 87.82 0.21 63
31 03/03/2024 05:28:36 81.14, 40.85 92.12 03/03/2024 05:27:33 81.14, 40.78 92.17 1.23 63
32 03/03/2024 06:19:22 -81.14,-151.96 87.88 03/03/2024 06:18:18 -81.14,-151.98 87.84 0.46 64
33 03/03/2024 07:10:07 81.14, 15.47 92.09 03/03/2024 07:09:03 81.14, 15.36 92.15 1.84 64
34 03/03/2024 08:00:53 -81.14,-177.34 87.91 03/03/2024 07:59:48 -81.14,-177.40 87.86 1.06 65
35 03/03/2024 08:51:38 81.14, -9.92 92.07 03/03/2024 08:50:33 81.14, -10.06 92.12 2.47 65
36 03/03/2024 09:42:24 -81.14, 157.28 87.94 03/03/2024 09:41:18 -81.14, 157.18 87.88 1.67 66
37 03/03/2024 10:33:09 81.14, -35.30 92.04 03/03/2024 10:32:03 81.14, -35.48 92.10 3.10 66
38 03/03/2024 11:23:55 -81.14, 131.89 87.96 03/03/2024 11:22:48 -81.14, 131.77 87.91 2.29 67
39 03/03/2024 12:14:40 81.14, -60.68 92.01 03/03/2024 12:13:32 81.13, -60.52 92.03 2.91 68
40 03/03/2024 13:05:26 -81.14, 106.51 87.99 03/03/2024 13:04:18 -81.14, 106.35 87.93 2.90 68
41 03/03/2024 13:56:11 81.14, -86.06 91.99 03/03/2024 13:55:02 81.13, -85.94 92.01 2.27 69
42 03/03/2024 14:46:57 -81.14, 81.13 88.02 03/03/2024 14:45:47 -81.13, 81.31 88.00 3.10 70
43 03/03/2024 15:37:42 81.14,-111.45 91.96 03/03/2024 15:36:32 81.13,-111.36 91.99 1.64 70
44 03/03/2024 16:28:28 -81.14, 55.74 88.04 03/03/2024 16:27:17 -81.14, 55.89 88.02 2.50 71
45 03/03/2024 17:19:13 81.14,-136.83 91.93 03/03/2024 17:18:02 81.13,-136.77 91.96 1.00 71
46 03/03/2024 18:09:59 -81.14, 30.36 88.07 03/03/2024 18:08:47 -81.14, 30.47 88.04 1.90 72
47 03/03/2024 19:00:44 81.14,-162.21 91.91 03/03/2024 18:59:32 81.14,-162.19 91.94 0.37 72
48 03/03/2024 19:51:30 -81.14, 4.98 88.10 03/03/2024 19:50:17 -81.14, 5.05 88.07 1.31 73
49 03/03/2024 20:42:15 81.14, 172.40 91.88 03/03/2024 20:41:02 81.14, 172.39 91.92 0.28 73
50 03/03/2024 21:33:01 -81.14, -20.41 88.12 03/03/2024 21:31:47 -81.14, -20.36 88.09 0.78 74
51 03/03/2024 22:23:46 81.14, 147.02 91.85 03/03/2024 22:22:32 81.14, 146.97 91.90 0.91 74
52 03/03/2024 23:14:32 -81.14, -45.79 88.15 03/03/2024 23:13:17 -81.14, -45.78 88.11 0.48 75
53 03/04/2024 00:05:17 81.14, 121.64 91.83 03/04/2024 00:04:02 81.14, 121.55 91.88 1.55 75



Historial Predications of SNOs between FY3D and NOAA-20
